"datetime","# probes","# resolvers","can_ipv6","can_ipv6_prbs","can_tcp","can_tcp_prbs","can_tcp6","can_tcp6_prbs","does_ecs","does_ecs_prbs","does_flagday","does_flagday_prbs","does_rov4","does_rov4_prbs","does_rov6","does_rov6_prbs","does_qnamemin","doesnt_qnamemin","does_qnamemin_prbs","doesnt_qnamemin_prbs","does_nxdomain","doesnt_nxdomain","does_nxdomain_prbs","doesnt_nxdomain_prbs","has_ta_19036","hasnt_ta_19036","has_ta_19036_prbs","hasnt_ta_19036_prbs","has_ta_20326","hasnt_ta_20326","has_ta_20326_prbs","hasnt_ta_20326_prbs","can_rsamd5","cannot_rsamd5","broken_rsamd5","can_rsamd5_prbs","cannot_rsamd5_prbs","broken_rsamd5_prbs","can_dsa","cannot_dsa","broken_dsa","can_dsa_prbs","cannot_dsa_prbs","broken_dsa_prbs","can_rsasha1","cannot_rsasha1","broken_rsasha1","can_rsasha1_prbs","cannot_rsasha1_prbs","broken_rsasha1_prbs","can_dsansec3","cannot_dsansec3","broken_dsansec3","can_dsansec3_prbs","cannot_dsansec3_prbs","broken_dsansec3_prbs","can_rsansec3","cannot_rsansec3","broken_rsansec3","can_rsansec3_prbs","cannot_rsansec3_prbs","broken_rsansec3_prbs","can_rsasha256","cannot_rsasha256","broken_rsasha256","can_rsasha256_prbs","cannot_rsasha256_prbs","broken_rsasha256_prbs","can_rsasha512","cannot_rsasha512","broken_rsasha512","can_rsasha512_prbs","cannot_rsasha512_prbs","broken_rsasha512_prbs","can_eccgost","cannot_eccgost","broken_eccgost","can_eccgost_prbs","cannot_eccgost_prbs","broken_eccgost_prbs","can_ecdsa256","cannot_ecdsa256","broken_ecdsa256","can_ecdsa256_prbs","cannot_ecdsa256_prbs","broken_ecdsa256_prbs","can_ecdsa384","cannot_ecdsa384","broken_ecdsa384","can_ecdsa384_prbs","cannot_ecdsa384_prbs","broken_ecdsa384_prbs","can_ed25519","cannot_ed25519","broken_ed25519","can_ed25519_prbs","cannot_ed25519_prbs","broken_ed25519_prbs","can_ed448","cannot_ed448","broken_ed448","can_ed448_prbs","cannot_ed448_prbs","broken_ed448_prbs","can_gost","cannot_gost","broken_gost","can_gost_prbs","cannot_gost_prbs","broken_gost_prbs","can_sha384","cannot_sha384","broken_sha384","can_sha384_prbs","cannot_sha384_prbs","broken_sha384_prbs","is_internal","is_forwarding","is_external","is_internal_prbs","is_forwarding_prbs","is_external_prbs"
2017-06-20T23:59:58Z,29,59,30,18,59,29,29,17,3,2,0,0,0,0,0,0,0,59,0,29,0,59,0,29,0,0,0,0,0,0,0,0,24,33,2,12,18,3,26,33,0,13,18,1,28,31,0,14,16,1,26,33,0,13,18,1,28,31,0,14,16,1,28,31,0,14,16,1,28,31,0,14,16,1,14,45,0,7,23,1,25,34,0,13,18,1,25,34,0,13,18,1,0,59,0,0,29,1,0,59,0,0,29,1,16,43,0,8,22,1,27,32,0,14,17,1,55,3,1,27,3,1
2017-06-21T23:59:59Z,29,59,30,18,59,29,29,17,3,2,0,0,0,0,0,0,0,59,0,29,0,59,0,29,0,0,0,0,0,0,0,0,24,33,2,12,18,3,26,33,0,13,18,1,28,31,0,14,16,1,26,33,0,13,18,1,28,31,0,14,16,1,28,31,0,14,16,1,28,31,0,14,16,1,14,45,0,7,23,1,25,34,0,13,18,1,25,34,0,13,18,1,0,59,0,0,29,1,0,59,0,0,29,1,16,43,0,8,22,1,27,32,0,14,17,1,55,3,1,27,3,1
2017-06-22T23:59:57Z,30,61,30,18,61,30,29,17,3,2,0,0,0,0,0,0,0,61,0,30,0,61,0,30,0,0,0,0,0,0,0,0,24,35,2,12,19,3,26,35,0,13,19,1,28,33,0,14,17,1,26,35,0,13,19,1,28,33,0,14,17,1,28,33,0,14,17,1,28,33,0,14,17,1,14,47,0,7,24,1,25,36,0,13,19,1,25,36,0,13,19,1,0,61,0,0,30,1,0,61,0,0,30,1,16,45,0,8,23,1,27,34,0,14,18,1,57,3,1,28,3,1
2017-06-23T23:59:58Z,29,60,29,17,60,29,28,16,3,2,0,0,0,0,0,0,0,60,0,29,0,60,0,29,0,0,0,0,0,0,0,0,24,34,2,12,18,3,26,34,0,13,18,1,28,32,0,14,16,1,26,34,0,13,18,1,28,32,0,14,16,1,28,32,0,14,16,1,28,32,0,14,16,1,14,46,0,7,23,1,25,35,0,13,18,1,25,35,0,13,18,1,0,60,0,0,29,1,0,60,0,0,29,1,16,44,0,8,22,1,27,33,0,14,17,1,56,3,1,27,3,1
2017-06-24T23:59:59Z,29,60,29,17,60,29,28,16,3,2,0,0,0,0,0,0,0,60,0,29,0,60,0,29,0,0,0,0,0,0,0,0,24,34,2,12,18,3,26,34,0,13,18,1,28,32,0,14,16,1,26,34,0,13,18,1,28,32,0,14,16,1,28,32,0,14,16,1,28,32,0,14,16,1,14,46,0,7,23,1,25,35,0,13,18,1,25,35,0,13,18,1,0,60,0,0,29,1,0,60,0,0,29,1,16,44,0,8,22,1,27,33,0,14,17,1,56,3,1,27,3,1
2017-06-25T23:59:59Z,28,59,28,16,59,28,27,15,3,2,0,0,0,0,0,0,0,59,0,28,0,59,0,28,0,0,0,0,0,0,0,0,24,33,2,12,17,3,26,33,0,13,17,1,28,31,0,14,15,1,26,33,0,13,17,1,28,31,0,14,15,1,28,31,0,14,15,1,28,31,0,14,15,1,14,45,0,7,22,1,25,34,0,13,17,1,25,34,0,13,17,1,0,59,0,0,28,1,0,59,0,0,28,1,16,43,0,8,21,1,27,32,0,14,16,1,55,3,1,26,3,1
2017-06-26T23:59:31Z,31,64,33,19,64,31,32,18,5,3,0,0,0,0,0,0,0,64,0,31,0,64,0,31,0,0,0,0,0,0,0,0,25,36,3,13,20,4,28,36,0,14,20,1,31,33,0,15,17,1,28,36,0,14,20,1,31,33,0,15,17,1,31,33,0,15,17,1,31,33,0,15,17,1,15,49,0,8,25,1,28,36,0,14,19,1,28,36,0,14,19,1,0,64,0,0,31,1,0,64,0,0,31,1,18,46,0,9,24,1,30,34,0,15,18,1,58,4,2,29,4,2
2017-06-27T23:59:59Z,31,64,33,19,64,31,32,18,5,3,0,0,0,0,0,0,0,64,0,31,0,64,0,31,0,0,0,0,0,0,0,0,25,36,3,13,20,4,28,36,0,14,20,1,31,33,0,15,17,1,28,36,0,14,20,1,31,33,0,15,17,1,31,33,0,15,17,1,31,33,0,15,17,1,15,49,0,8,25,1,28,36,0,14,19,1,28,36,0,14,19,1,0,64,0,0,31,1,0,64,0,0,31,1,18,46,0,9,24,1,30,34,0,15,18,1,58,4,2,29,4,2
2017-06-28T23:59:57Z,31,64,33,19,63,31,32,18,5,3,0,0,0,0,0,0,0,64,0,31,0,64,0,31,0,0,0,0,0,0,0,0,25,36,3,13,20,4,28,36,0,14,20,1,31,33,0,15,17,1,28,36,0,14,20,1,31,33,0,15,17,1,31,33,0,15,17,1,31,33,0,15,17,1,15,49,0,8,25,1,28,36,0,14,19,1,28,36,0,14,19,1,0,64,0,0,31,1,0,64,0,0,31,1,18,46,0,9,24,1,30,34,0,15,18,1,58,4,2,29,4,2
2017-06-29T23:59:58Z,31,64,34,19,64,31,32,18,5,3,0,0,0,0,0,0,0,64,0,31,0,64,0,31,0,0,0,0,0,0,0,0,25,36,3,13,20,4,28,36,0,14,20,1,31,33,0,15,17,1,28,36,0,14,20,1,31,33,0,15,17,1,31,33,0,15,17,1,31,33,0,15,17,1,15,49,0,8,25,1,28,36,0,14,19,1,28,36,0,14,19,1,0,64,0,0,31,1,0,64,0,0,31,1,18,46,0,9,24,1,30,34,0,15,18,1,58,4,2,29,4,2
2017-06-30T23:59:58Z,31,64,34,19,64,31,32,18,5,3,0,0,0,0,0,0,0,64,0,31,0,64,0,31,0,0,0,0,0,0,0,0,25,36,3,13,20,4,28,36,0,14,20,1,31,33,0,15,17,1,28,36,0,14,20,1,31,33,0,15,17,1,31,33,0,15,17,1,31,33,0,15,17,1,15,49,0,8,25,1,28,36,0,14,19,1,28,36,0,14,19,1,0,64,0,0,31,1,0,64,0,0,31,1,18,46,0,9,24,1,30,34,0,15,18,1,58,4,2,29,4,2
2017-07-01T23:59:59Z,31,64,34,19,64,31,32,18,5,3,0,0,0,0,0,0,0,64,0,31,0,64,0,31,0,0,0,0,0,0,0,0,25,36,3,13,20,4,28,36,0,14,20,1,31,33,0,15,17,1,28,36,0,14,20,1,31,33,0,15,17,1,31,33,0,15,17,1,31,33,0,15,17,1,15,49,0,8,25,1,28,36,0,14,19,1,28,36,0,14,19,1,0,64,0,0,31,1,0,64,0,0,31,1,18,46,0,9,24,1,30,34,0,15,18,1,58,4,2,29,4,2
2017-07-02T23:59:59Z,31,64,34,19,64,31,32,18,5,3,0,0,0,0,0,0,0,64,0,31,0,64,0,31,0,0,0,0,0,0,0,0,25,36,3,13,20,4,28,36,0,14,20,1,31,33,0,15,17,1,28,36,0,14,20,1,31,33,0,15,17,1,31,33,0,15,17,1,31,33,0,15,17,1,15,49,0,8,25,1,28,36,0,14,19,1,28,36,0,14,19,1,0,64,0,0,31,1,0,64,0,0,31,1,18,46,0,9,24,1,30,34,0,15,18,1,58,4,2,29,4,2
2017-07-03T23:59:58Z,31,64,34,19,64,31,32,18,5,3,0,0,0,0,0,0,0,64,0,31,0,64,0,31,0,0,0,0,0,0,0,0,25,36,3,13,20,4,28,36,0,14,20,1,31,33,0,15,17,1,28,36,0,14,20,1,31,33,0,15,17,1,31,33,0,15,17,1,31,33,0,15,17,1,15,49,0,8,25,1,28,36,0,14,19,1,28,36,0,14,19,1,0,64,0,0,31,1,0,64,0,0,31,1,18,46,0,9,24,1,30,34,0,15,18,1,58,4,2,29,4,2
2017-07-04T23:59:57Z,31,64,34,19,64,31,32,18,5,3,0,0,0,0,0,0,0,64,0,31,0,64,0,31,0,0,0,0,0,0,0,0,25,36,3,13,20,4,28,36,0,14,20,1,31,33,0,15,17,1,28,36,0,14,20,1,31,33,0,15,17,1,31,33,0,15,17,1,31,33,0,15,17,1,15,49,0,8,25,1,28,36,0,14,19,1,28,36,0,14,19,1,0,64,0,0,31,1,0,64,0,0,31,1,18,46,0,9,24,1,30,34,0,15,18,1,58,4,2,29,4,2
2017-07-05T23:59:59Z,31,64,34,19,64,31,32,18,5,3,0,0,0,0,0,0,0,64,0,31,0,64,0,31,0,0,0,0,0,0,0,0,25,36,3,13,20,4,28,36,0,14,20,1,31,33,0,15,17,1,28,36,0,14,20,1,31,33,0,15,17,1,31,33,0,15,17,1,31,33,0,15,17,1,15,49,0,8,25,1,28,36,0,14,19,1,28,36,0,14,19,1,0,64,0,0,31,1,0,64,0,0,31,1,18,46,0,9,24,1,30,34,0,15,18,1,58,4,2,29,4,2
2017-07-06T23:59:59Z,31,64,34,19,64,31,32,18,5,3,0,0,0,0,0,0,0,64,0,31,0,64,0,31,0,0,0,0,0,0,0,0,25,36,3,13,20,4,28,36,0,14,20,1,31,33,0,15,17,1,28,36,0,14,20,1,31,33,0,15,17,1,31,33,0,15,17,1,31,33,0,15,17,1,15,49,0,8,25,1,28,36,0,14,19,1,28,36,0,14,19,1,0,64,0,0,31,1,0,64,0,0,31,1,18,46,0,9,24,1,30,34,0,15,18,1,58,4,2,29,4,2
2017-07-07T23:59:58Z,31,64,34,19,63,31,32,18,5,3,0,0,0,0,0,0,0,64,0,31,0,64,0,31,0,0,0,0,0,0,0,0,25,36,3,13,20,4,28,36,0,14,20,1,31,33,0,15,17,1,28,36,0,14,20,1,31,33,0,15,17,1,31,33,0,15,17,1,31,33,0,15,17,1,15,49,0,8,25,1,28,36,0,14,19,1,28,36,0,14,19,1,0,64,0,0,31,1,0,64,0,0,31,1,18,46,0,9,24,1,30,34,0,15,18,1,58,4,2,29,4,2
2017-07-08T23:59:58Z,31,64,34,19,64,31,32,18,5,3,0,0,0,0,0,0,0,64,0,31,0,64,0,31,0,0,0,0,0,0,0,0,25,36,3,13,20,4,28,36,0,14,20,1,31,33,0,15,17,1,28,36,0,14,20,1,31,33,0,15,17,1,31,33,0,15,17,1,31,33,0,15,17,1,15,49,0,8,25,1,28,36,0,14,19,1,28,36,0,14,19,1,0,64,0,0,31,1,0,64,0,0,31,1,18,46,0,9,24,1,30,34,0,15,18,1,58,4,2,29,4,2
2017-07-09T23:59:57Z,31,64,34,19,63,31,32,18,5,3,0,0,0,0,0,0,0,64,0,31,0,64,0,31,0,0,0,0,0,0,0,0,25,36,3,13,20,4,28,36,0,14,20,1,31,33,0,15,17,1,28,36,0,14,20,1,31,33,0,15,17,1,31,33,0,15,17,1,31,33,0,15,17,1,15,49,0,8,25,1,28,36,0,14,19,1,28,36,0,14,19,1,0,64,0,0,31,1,0,64,0,0,31,1,18,46,0,9,24,1,30,34,0,15,18,1,58,4,2,29,4,2
2017-07-10T23:59:58Z,31,64,34,19,64,31,32,18,4,3,0,0,0,0,0,0,0,64,0,31,0,64,0,31,0,0,0,0,0,0,0,0,25,36,3,13,20,4,28,36,0,14,20,1,31,33,0,15,17,1,28,36,0,14,20,1,31,33,0,15,17,1,31,33,0,15,17,1,31,33,0,15,17,1,15,49,0,8,25,1,28,36,0,14,19,1,28,36,0,14,19,1,0,64,0,0,31,1,0,64,0,0,31,1,18,46,0,9,24,1,30,34,0,15,18,1,58,4,2,29,4,2
2017-07-11T23:59:58Z,30,62,31,18,62,30,29,17,5,3,0,0,0,0,0,0,0,62,0,30,0,62,0,30,0,0,0,0,0,0,0,0,25,34,3,13,19,4,28,34,0,14,19,1,31,31,0,15,16,1,28,34,0,14,19,1,31,31,0,15,16,1,31,31,0,15,16,1,31,31,0,15,16,1,15,47,0,8,24,1,28,34,0,14,18,1,28,34,0,14,18,1,0,62,0,0,30,1,0,62,0,0,30,1,18,44,0,9,23,1,30,32,0,15,17,1,56,4,2,28,4,2
2017-07-12T23:59:33Z,30,62,31,18,62,30,29,17,5,3,0,0,0,0,0,0,0,62,0,30,0,62,0,30,0,0,0,0,0,0,0,0,25,34,3,13,19,4,28,34,0,14,19,1,31,31,0,15,16,1,28,34,0,14,19,1,31,31,0,15,16,1,31,31,0,15,16,1,31,31,0,15,16,1,15,47,0,8,24,1,28,34,0,14,18,1,28,34,0,14,18,1,0,62,0,0,30,1,0,62,0,0,30,1,18,44,0,9,23,1,30,32,0,15,17,1,56,4,2,28,4,2
2017-07-13T23:59:31Z,30,64,33,18,64,30,31,17,5,3,0,0,0,0,0,0,0,64,0,30,0,64,0,30,0,0,0,0,0,0,0,0,27,34,3,13,19,4,30,34,0,14,19,1,33,31,0,15,16,1,30,34,0,14,19,1,33,31,0,15,16,1,33,31,0,15,16,1,33,31,0,15,16,1,15,49,0,8,24,1,30,34,0,14,18,1,30,34,0,14,18,1,0,64,0,0,30,1,0,64,0,0,30,1,18,46,0,9,23,1,32,32,0,15,17,1,58,4,2,28,4,2
2017-07-14T23:59:58Z,30,62,31,18,62,30,29,17,5,3,0,0,0,0,0,0,0,62,0,30,0,62,0,30,0,0,0,0,0,0,0,0,25,34,3,13,19,4,28,34,0,14,19,1,31,31,0,15,16,1,28,34,0,14,19,1,31,31,0,15,16,1,31,31,0,15,16,1,31,31,0,15,16,1,15,47,0,8,24,1,28,34,0,14,18,1,28,34,0,14,18,1,0,62,0,0,30,1,0,62,0,0,30,1,18,44,0,9,23,1,30,32,0,15,17,1,56,4,2,28,4,2
2017-07-15T23:59:57Z,29,59,31,18,59,29,29,17,5,3,0,0,0,0,0,0,0,59,0,29,0,59,0,29,0,0,0,0,0,0,0,0,22,34,3,12,19,4,25,34,0,13,19,1,28,31,0,14,16,1,25,34,0,13,19,1,28,31,0,14,16,1,28,31,0,14,16,1,28,31,0,14,16,1,12,47,0,7,24,1,25,34,0,13,18,1,25,34,0,13,18,1,0,59,0,0,29,1,0,59,0,0,29,1,15,44,0,8,23,1,27,32,0,14,17,1,53,4,2,27,4,2
2017-07-16T23:59:16Z,29,59,31,18,59,29,29,17,5,3,0,0,0,0,0,0,0,59,0,29,0,59,0,29,0,0,0,0,0,0,0,0,22,34,3,12,19,4,25,34,0,13,19,1,28,31,0,14,16,1,25,34,0,13,19,1,28,31,0,14,16,1,28,31,0,14,16,1,28,31,0,14,16,1,12,47,0,7,24,1,25,34,0,13,18,1,25,34,0,13,18,1,0,59,0,0,29,1,0,59,0,0,29,1,15,44,0,8,23,1,27,32,0,14,17,1,53,4,2,27,4,2
2017-07-17T23:59:30Z,31,65,34,19,65,31,32,18,5,3,0,0,0,0,0,0,0,65,0,31,0,65,0,31,0,0,0,0,0,0,0,0,25,37,3,13,20,4,28,37,0,14,20,1,31,34,0,15,17,1,28,37,0,14,20,1,31,34,0,15,17,1,31,34,0,15,17,1,31,34,0,15,17,1,15,50,0,8,25,1,28,37,0,14,19,1,28,37,0,14,19,1,0,65,0,0,31,1,0,65,0,0,31,1,18,47,0,9,24,1,30,35,0,15,18,1,59,4,2,29,4,2
2017-07-18T23:59:30Z,31,65,34,19,65,31,32,18,5,3,0,0,0,0,0,0,0,65,0,31,0,65,0,31,0,0,0,0,0,0,0,0,25,37,3,13,20,4,28,37,0,14,20,1,31,34,0,15,17,1,28,37,0,14,20,1,31,34,0,15,17,1,31,34,0,15,17,1,31,34,0,15,17,1,15,50,0,8,25,1,28,37,0,14,19,1,28,37,0,14,19,1,0,65,0,0,31,1,0,65,0,0,31,1,18,47,0,9,24,1,30,35,0,15,18,1,59,4,2,29,4,2
2017-07-19T23:59:59Z,31,67,36,19,67,31,34,18,4,3,0,0,0,0,0,0,0,67,0,31,0,67,0,31,0,0,0,0,0,0,0,0,27,37,3,13,20,4,30,37,0,14,20,1,33,34,0,15,17,1,30,37,0,14,20,1,33,34,0,15,17,1,33,34,0,15,17,1,33,34,0,15,17,1,15,52,0,8,25,1,30,37,0,14,19,1,30,37,0,14,19,1,0,67,0,0,31,1,0,67,0,0,31,1,18,49,0,9,24,1,32,35,0,15,18,1,61,4,2,29,4,2
2017-07-20T23:59:59Z,31,65,34,19,65,31,32,18,5,3,0,0,0,0,0,0,0,65,0,31,0,65,0,31,0,0,0,0,0,0,0,0,25,37,3,13,20,4,28,37,0,14,20,1,31,34,0,15,17,1,28,37,0,14,20,1,31,34,0,15,17,1,31,34,0,15,17,1,31,34,0,15,17,1,15,50,0,8,25,1,28,37,0,14,19,1,28,37,0,14,19,1,0,65,0,0,31,1,0,65,0,0,31,1,18,47,0,9,24,1,30,35,0,15,18,1,59,4,2,29,4,2
2017-07-21T23:59:59Z,31,65,34,19,65,31,32,18,4,3,0,0,0,0,0,0,0,65,0,31,0,65,0,31,0,0,0,0,0,0,0,0,25,37,3,13,20,4,28,37,0,14,20,1,31,34,0,15,17,1,28,37,0,14,20,1,31,34,0,15,17,1,31,34,0,15,17,1,31,34,0,15,17,1,15,50,0,8,25,1,28,37,0,14,19,1,28,37,0,14,19,1,0,65,0,0,31,1,0,65,0,0,31,1,18,47,0,9,24,1,30,35,0,15,18,1,59,4,2,29,4,2
2017-07-22T23:59:33Z,31,65,34,19,65,31,33,18,5,3,0,0,0,0,0,0,0,65,0,31,0,65,0,31,0,0,0,0,0,0,0,0,25,37,3,13,20,4,28,37,0,14,20,1,31,34,0,15,17,1,28,37,0,14,20,1,31,34,0,15,17,1,31,34,0,15,17,1,31,34,0,15,17,1,15,50,0,8,25,1,28,37,0,14,19,1,28,37,0,14,19,1,0,65,0,0,31,1,0,65,0,0,31,1,18,47,0,9,24,1,30,35,0,15,18,1,59,4,2,29,4,2
2017-07-23T23:59:57Z,31,65,34,19,65,31,33,18,5,3,0,0,0,0,0,0,0,65,0,31,0,65,0,31,0,0,0,0,0,0,0,0,25,37,3,13,20,4,28,37,0,14,20,1,31,34,0,15,17,1,28,37,0,14,20,1,31,34,0,15,17,1,31,34,0,15,17,1,31,34,0,15,17,1,15,50,0,8,25,1,28,37,0,14,19,1,28,37,0,14,19,1,0,65,0,0,31,1,0,65,0,0,31,1,18,47,0,9,24,1,30,35,0,15,18,1,59,4,2,29,4,2
2017-07-24T23:59:33Z,31,65,34,19,65,31,33,18,5,3,0,0,0,0,0,0,0,65,0,31,0,65,0,31,0,0,0,0,0,0,0,0,25,37,3,13,20,4,28,37,0,14,20,1,31,34,0,15,17,1,28,37,0,14,20,1,31,34,0,15,17,1,31,34,0,15,17,1,31,34,0,15,17,1,15,50,0,8,25,1,27,38,0,13,20,1,28,37,0,14,19,1,0,65,0,0,31,1,0,65,0,0,31,1,18,47,0,9,24,1,30,35,0,15,18,1,59,4,2,29,4,2
2017-07-25T23:59:57Z,31,65,34,19,64,31,33,18,5,3,0,0,0,0,0,0,0,65,0,31,0,65,0,31,0,0,0,0,0,0,0,0,25,37,3,13,20,4,28,37,0,14,20,1,31,34,0,15,17,1,28,37,0,14,20,1,31,34,0,15,17,1,31,34,0,15,17,1,31,34,0,15,17,1,15,50,0,8,25,1,28,37,0,14,19,1,28,37,0,14,19,1,0,65,0,0,31,1,0,65,0,0,31,1,18,47,0,9,24,1,30,35,0,15,18,1,59,4,2,29,4,2
2017-07-26T23:59:57Z,31,65,34,19,65,31,33,18,4,3,0,0,0,0,0,0,0,65,0,31,0,65,0,31,0,0,0,0,0,0,0,0,25,37,3,13,20,4,28,37,0,14,20,1,31,34,0,15,17,1,28,37,0,14,20,1,31,34,0,15,17,1,31,34,0,15,17,1,31,34,0,15,17,1,15,50,0,8,25,1,28,37,0,14,19,1,28,37,0,14,19,1,0,65,0,0,31,1,0,65,0,0,31,1,18,47,0,9,24,1,30,35,0,15,18,1,59,4,2,29,4,2
2017-07-27T23:59:58Z,31,65,34,19,65,31,33,18,5,3,0,0,0,0,0,0,0,65,0,31,0,65,0,31,0,0,0,0,0,0,0,0,25,37,3,13,20,4,28,37,0,14,20,1,31,34,0,15,17,1,28,37,0,14,20,1,31,34,0,15,17,1,31,34,0,15,17,1,31,34,0,15,17,1,15,50,0,8,25,1,28,37,0,14,19,1,28,37,0,14,19,1,0,65,0,0,31,1,0,65,0,0,31,1,18,47,0,9,24,1,30,35,0,15,18,1,59,4,2,29,4,2
2017-07-28T23:59:58Z,31,65,34,19,65,31,33,18,5,3,0,0,0,0,0,0,0,65,0,31,0,65,0,31,0,0,0,0,0,0,0,0,25,37,3,13,20,4,28,37,0,14,20,1,31,34,0,15,17,1,28,37,0,14,20,1,31,34,0,15,17,1,31,34,0,15,17,1,31,34,0,15,17,1,15,50,0,8,25,1,28,37,0,14,19,1,28,37,0,14,19,1,0,65,0,0,31,1,0,65,0,0,31,1,18,47,0,9,24,1,30,35,0,15,18,1,59,4,2,29,4,2
2017-07-29T23:59:58Z,31,65,34,19,65,31,33,18,5,3,0,0,0,0,0,0,0,65,0,31,0,65,0,31,0,0,0,0,0,0,0,0,25,37,3,13,20,4,28,37,0,14,20,1,31,34,0,15,17,1,28,37,0,14,20,1,31,34,0,15,17,1,31,34,0,15,17,1,31,34,0,15,17,1,15,50,0,8,25,1,28,37,0,14,19,1,28,37,0,14,19,1,0,65,0,0,31,1,0,65,0,0,31,1,18,47,0,9,24,1,30,35,0,15,18,1,59,4,2,29,4,2
2017-07-30T23:59:30Z,30,62,31,18,62,30,30,17,5,3,0,0,0,0,0,0,0,62,0,30,0,62,0,30,0,0,0,0,0,0,0,0,25,34,3,13,19,4,28,34,0,14,19,1,31,31,0,15,16,1,28,34,0,14,19,1,31,31,0,15,16,1,31,31,0,15,16,1,31,31,0,15,16,1,15,47,0,8,24,1,28,34,0,14,18,1,28,34,0,14,18,1,0,62,0,0,30,1,0,62,0,0,30,1,18,44,0,9,23,1,30,32,0,15,17,1,56,4,2,28,4,2
2017-07-31T23:59:58Z,30,62,31,18,62,30,30,17,5,3,0,0,0,0,0,0,0,62,0,30,0,62,0,30,0,0,0,0,0,0,0,0,25,34,3,13,19,4,28,34,0,14,19,1,31,31,0,15,16,1,28,34,0,14,19,1,31,31,0,15,16,1,31,31,0,15,16,1,31,31,0,15,16,1,15,47,0,8,24,1,28,34,0,14,18,1,28,34,0,14,18,1,0,62,0,0,30,1,0,62,0,0,30,1,18,44,0,9,23,1,30,32,0,15,17,1,56,4,2,28,4,2
2017-08-01T23:59:58Z,30,62,31,18,62,30,30,17,5,3,0,0,0,0,0,0,0,62,0,30,0,62,0,30,0,0,0,0,0,0,0,0,25,34,3,13,19,4,28,34,0,14,19,1,31,31,0,15,16,1,28,34,0,14,19,1,31,31,0,15,16,1,31,31,0,15,16,1,31,31,0,15,16,1,15,47,0,8,24,1,28,34,0,14,18,1,28,34,0,14,18,1,0,62,0,0,30,1,0,62,0,0,30,1,18,44,0,9,23,1,30,32,0,15,17,1,56,4,2,28,4,2
2017-08-02T23:59:58Z,30,62,31,18,62,30,30,17,5,3,0,0,0,0,0,0,0,62,0,30,0,62,0,30,0,0,0,0,0,0,0,0,25,34,3,13,19,4,28,34,0,14,19,1,31,31,0,15,16,1,28,34,0,14,19,1,31,31,0,15,16,1,31,31,0,15,16,1,31,31,0,15,16,1,15,47,0,8,24,1,28,34,0,14,18,1,28,34,0,14,18,1,0,62,0,0,30,1,0,62,0,0,30,1,18,44,0,9,23,1,30,32,0,15,17,1,56,4,2,28,4,2
2017-08-03T23:59:59Z,30,62,31,18,62,30,30,17,5,3,0,0,0,0,0,0,0,62,0,30,0,62,0,30,0,0,0,0,0,0,0,0,25,34,3,13,19,4,28,34,0,14,19,1,31,31,0,15,16,1,28,34,0,14,19,1,31,31,0,15,16,1,31,31,0,15,16,1,31,31,0,15,16,1,15,47,0,8,24,1,28,34,0,14,18,1,28,34,0,14,18,1,0,62,0,0,30,1,0,62,0,0,30,1,18,44,0,9,23,1,30,32,0,15,17,1,56,4,2,28,4,2
2017-08-04T23:59:31Z,30,62,31,18,61,30,30,17,5,3,0,0,0,0,0,0,0,62,0,30,0,62,0,30,0,0,0,0,0,0,0,0,25,34,3,13,19,4,28,34,0,14,19,1,31,31,0,15,16,1,28,34,0,14,19,1,31,31,0,15,16,1,31,31,0,15,16,1,31,31,0,15,16,1,15,47,0,8,24,1,28,34,0,14,18,1,28,34,0,14,18,1,0,62,0,0,30,1,0,62,0,0,30,1,18,44,0,9,23,1,30,32,0,15,17,1,56,4,2,28,4,2
2017-08-05T23:59:33Z,30,62,31,18,62,30,30,17,5,3,0,0,0,0,0,0,0,62,0,30,0,62,0,30,0,0,0,0,0,0,0,0,25,34,3,13,19,4,28,34,0,14,19,1,31,31,0,15,16,1,28,34,0,14,19,1,31,31,0,15,16,1,31,31,0,15,16,1,31,31,0,15,16,1,15,47,0,8,24,1,28,34,0,14,18,1,28,34,0,14,18,1,0,62,0,0,30,1,0,62,0,0,30,1,18,44,0,9,23,1,30,32,0,15,17,1,56,4,2,28,4,2
2017-08-06T23:59:32Z,29,59,28,17,58,29,27,16,3,2,0,0,0,0,0,0,0,59,0,29,0,59,0,29,0,0,0,0,0,0,0,0,24,33,2,12,18,3,26,33,0,13,18,1,28,31,0,14,16,1,26,33,0,13,18,1,28,31,0,14,16,1,28,31,0,14,16,1,28,31,0,14,16,1,14,45,0,7,23,1,25,34,0,13,18,1,25,34,0,13,18,1,0,59,0,0,29,1,0,59,0,0,29,1,16,43,0,8,22,1,27,32,0,14,17,1,55,3,1,27,3,1
2017-08-07T23:59:58Z,30,62,31,18,62,30,30,17,5,3,0,0,0,0,0,0,0,62,0,30,0,62,0,30,0,0,0,0,0,0,0,0,25,34,3,13,19,4,28,34,0,14,19,1,31,31,0,15,16,1,28,34,0,14,19,1,31,31,0,15,16,1,31,31,0,15,16,1,31,31,0,15,16,1,15,47,0,8,24,1,28,34,0,14,18,1,28,34,0,14,18,1,0,62,0,0,30,1,0,62,0,0,30,1,18,44,0,9,23,1,30,32,0,15,17,1,56,4,2,28,4,2
2017-08-08T23:59:59Z,30,62,31,18,61,30,30,17,5,3,0,0,0,0,0,0,0,62,0,30,0,62,0,30,0,0,0,0,0,0,0,0,25,34,3,13,19,4,28,34,0,14,19,1,31,31,0,15,16,1,28,34,0,14,19,1,31,31,0,15,16,1,31,31,0,15,16,1,31,31,0,15,16,1,15,47,0,8,24,1,28,34,0,14,18,1,28,34,0,14,18,1,0,62,0,0,30,1,0,62,0,0,30,1,18,44,0,9,23,1,30,32,0,15,17,1,56,4,2,28,4,2
2017-08-09T23:59:58Z,29,61,30,17,61,29,29,16,5,3,0,0,0,0,0,0,0,61,0,29,0,61,0,29,0,0,0,0,0,0,0,0,25,33,3,13,18,4,28,33,0,14,18,1,31,30,0,15,15,1,28,33,0,14,18,1,31,30,0,15,15,1,31,30,0,15,15,1,31,30,0,15,15,1,15,46,0,8,23,1,28,33,0,14,17,1,28,33,0,14,17,1,0,61,0,0,29,1,0,61,0,0,29,1,18,43,0,9,22,1,30,31,0,15,16,1,55,4,2,27,4,2
2017-08-10T23:59:59Z,29,61,30,17,61,29,29,16,5,3,0,0,0,0,0,0,0,61,0,29,0,61,0,29,0,0,0,0,0,0,0,0,25,33,3,13,18,4,28,33,0,14,18,1,31,30,0,15,15,1,28,33,0,14,18,1,31,30,0,15,15,1,31,30,0,15,15,1,31,30,0,15,15,1,15,46,0,8,23,1,28,33,0,14,17,1,28,33,0,14,17,1,0,61,0,0,29,1,0,61,0,0,29,1,18,43,0,9,22,1,30,31,0,15,16,1,55,4,2,27,4,2
2017-08-11T23:59:58Z,29,61,30,17,60,29,29,16,5,3,0,0,0,0,0,0,0,61,0,29,0,61,0,29,0,0,0,0,0,0,0,0,25,33,3,13,18,4,28,33,0,14,18,1,31,30,0,15,15,1,28,33,0,14,18,1,31,30,0,15,15,1,31,30,0,15,15,1,31,30,0,15,15,1,15,46,0,8,23,1,28,33,0,14,17,1,28,33,0,14,17,1,0,61,0,0,29,1,0,61,0,0,29,1,18,43,0,9,22,1,30,31,0,15,16,1,55,4,2,27,4,2
2017-08-12T23:59:59Z,29,61,30,17,61,29,29,16,5,3,0,0,0,0,0,0,0,61,0,29,0,61,0,29,0,0,0,0,0,0,0,0,25,33,3,13,18,4,28,33,0,14,18,1,31,30,0,15,15,1,28,33,0,14,18,1,31,30,0,15,15,1,31,30,0,15,15,1,31,30,0,15,15,1,15,46,0,8,23,1,28,33,0,14,17,1,28,33,0,14,17,1,0,61,0,0,29,1,0,61,0,0,29,1,18,43,0,9,22,1,30,31,0,15,16,1,55,4,2,27,4,2
2017-08-13T23:59:58Z,29,61,30,17,61,29,29,16,5,3,0,0,0,0,0,0,0,61,0,29,0,61,0,29,0,0,0,0,0,0,0,0,25,33,3,13,18,4,28,33,0,14,18,1,31,30,0,15,15,1,28,33,0,14,18,1,31,30,0,15,15,1,31,30,0,15,15,1,31,30,0,15,15,1,15,46,0,8,23,1,28,33,0,14,17,1,28,33,0,14,17,1,0,61,0,0,29,1,0,61,0,0,29,1,18,43,0,9,22,1,30,31,0,15,16,1,55,4,2,27,4,2
2017-08-14T23:59:30Z,32,68,37,20,68,32,33,18,5,3,0,0,0,0,0,0,0,68,0,32,0,68,0,32,0,0,0,0,0,0,0,0,25,40,3,13,21,4,28,40,0,14,21,1,31,37,0,15,18,1,28,40,0,14,21,1,31,37,0,15,18,1,31,37,0,15,18,1,31,37,0,15,18,1,15,53,0,8,26,1,28,40,0,14,20,1,28,40,0,14,20,1,0,68,0,0,32,1,0,68,0,0,32,1,18,50,0,9,25,1,30,38,0,15,19,1,62,4,2,30,4,2
2017-08-15T23:59:57Z,32,68,37,20,68,32,33,18,5,3,0,0,0,0,0,0,0,68,0,32,0,68,0,32,0,0,0,0,0,0,0,0,25,40,3,13,21,4,28,40,0,14,21,1,31,37,0,15,18,1,28,40,0,14,21,1,31,37,0,15,18,1,31,37,0,15,18,1,31,37,0,15,18,1,15,53,0,8,26,1,28,40,0,14,20,1,28,40,0,14,20,1,0,68,0,0,32,1,0,68,0,0,32,1,18,50,0,9,25,1,30,38,0,15,19,1,62,4,2,30,4,2
2017-08-16T23:59:59Z,32,68,37,20,68,32,33,18,5,3,0,0,0,0,0,0,0,68,0,32,0,68,0,32,0,0,0,0,0,0,0,0,25,40,3,13,21,4,28,40,0,14,21,1,31,37,0,15,18,1,28,40,0,14,21,1,31,37,0,15,18,1,31,37,0,15,18,1,31,37,0,15,18,1,15,53,0,8,26,1,28,40,0,14,20,1,28,40,0,14,20,1,0,68,0,0,32,1,0,68,0,0,32,1,18,50,0,9,25,1,30,38,0,15,19,1,62,4,2,30,4,2
2017-08-17T23:59:57Z,32,68,37,20,68,32,33,18,5,3,0,0,0,0,0,0,0,68,0,32,0,68,0,32,0,0,0,0,0,0,0,0,25,40,3,13,21,4,28,40,0,14,21,1,31,37,0,15,18,1,28,40,0,14,21,1,31,37,0,15,18,1,31,37,0,15,18,1,31,37,0,15,18,1,15,53,0,8,26,1,28,40,0,14,20,1,28,40,0,14,20,1,0,68,0,0,32,1,0,68,0,0,32,1,18,50,0,9,25,1,30,38,0,15,19,1,62,4,2,30,4,2
2017-08-18T23:59:57Z,32,68,37,20,68,32,33,18,5,3,0,0,0,0,0,0,0,68,0,32,0,68,0,32,0,0,0,0,0,0,0,0,25,40,3,13,21,4,28,40,0,14,21,1,31,37,0,15,18,1,28,40,0,14,21,1,31,37,0,15,18,1,31,37,0,15,18,1,31,37,0,15,18,1,15,53,0,8,26,1,28,40,0,14,20,1,28,40,0,14,20,1,0,68,0,0,32,1,0,68,0,0,32,1,18,50,0,9,25,1,30,38,0,15,19,1,62,4,2,30,4,2
2017-08-19T23:59:57Z,32,68,37,20,68,32,33,18,5,3,0,0,0,0,0,0,0,68,0,32,0,68,0,32,0,0,0,0,0,0,0,0,25,40,3,13,21,4,28,40,0,14,21,1,31,37,0,15,18,1,28,40,0,14,21,1,31,37,0,15,18,1,31,37,0,15,18,1,31,37,0,15,18,1,15,53,0,8,26,1,28,40,0,14,20,1,28,40,0,14,20,1,0,68,0,0,32,1,0,68,0,0,32,1,18,50,0,9,25,1,30,38,0,15,19,1,62,4,2,30,4,2
2017-08-20T23:59:32Z,32,68,37,20,68,32,33,18,5,3,0,0,0,0,0,0,0,68,0,32,0,68,0,32,0,0,0,0,0,0,0,0,25,40,3,13,21,4,28,40,0,14,21,1,31,37,0,15,18,1,28,40,0,14,21,1,31,37,0,15,18,1,31,37,0,15,18,1,31,37,0,15,18,1,15,53,0,8,26,1,28,40,0,14,20,1,28,40,0,14,20,1,0,68,0,0,32,1,0,68,0,0,32,1,18,50,0,9,25,1,30,38,0,15,19,1,62,4,2,30,4,2
2017-08-21T23:59:59Z,32,68,37,20,68,32,33,18,5,3,0,0,0,0,0,0,0,68,0,32,0,68,0,32,0,0,0,0,0,0,0,0,25,40,3,13,21,4,28,40,0,14,21,1,31,37,0,15,18,1,28,40,0,14,21,1,31,37,0,15,18,1,31,37,0,15,18,1,31,37,0,15,18,1,15,53,0,8,26,1,28,40,0,14,20,1,28,40,0,14,20,1,0,68,0,0,32,1,0,68,0,0,32,1,18,50,0,9,25,1,30,38,0,15,19,1,62,4,2,30,4,2
2017-08-22T23:59:57Z,32,68,37,20,68,32,33,18,5,3,0,0,0,0,0,0,0,68,0,32,0,68,0,32,0,0,0,0,0,0,0,0,25,40,3,13,21,4,28,40,0,14,21,1,31,37,0,15,18,1,28,40,0,14,21,1,31,37,0,15,18,1,31,37,0,15,18,1,31,37,0,15,18,1,15,53,0,8,26,1,28,40,0,14,20,1,28,40,0,14,20,1,0,68,0,0,32,1,0,68,0,0,32,1,18,50,0,9,25,1,30,38,0,15,19,1,62,4,2,30,4,2
2017-08-23T23:59:31Z,32,68,37,20,68,32,33,18,5,3,0,0,0,0,0,0,0,68,0,32,0,68,0,32,0,0,0,0,0,0,0,0,25,40,3,13,21,4,28,40,0,14,21,1,31,37,0,15,18,1,28,40,0,14,21,1,31,37,0,15,18,1,31,37,0,15,18,1,31,37,0,15,18,1,15,53,0,8,26,1,28,40,0,14,20,1,28,40,0,14,20,1,0,68,0,0,32,1,0,68,0,0,32,1,18,50,0,9,25,1,30,38,0,15,19,1,62,4,2,30,4,2
2017-08-24T23:59:59Z,32,68,37,20,68,32,33,18,5,3,0,0,0,0,0,0,0,68,0,32,0,68,0,32,0,0,0,0,0,0,0,0,25,40,3,13,21,4,28,40,0,14,21,1,31,37,0,15,18,1,28,40,0,14,21,1,31,37,0,15,18,1,31,37,0,15,18,1,31,37,0,15,18,1,15,53,0,8,26,1,28,40,0,14,20,1,28,40,0,14,20,1,0,68,0,0,32,1,0,68,0,0,32,1,18,50,0,9,25,1,30,38,0,15,19,1,62,4,2,30,4,2